Weather History for Namest Nad Oslav, Czech Republic

Change the Weather History Date:

Tuesday, November 5, 2013

  Actual Average Record
Temperature  
Mean Temperature 38 °F -  
Max Temperature 44 °F - - ()
Min Temperature 33 °F - - ()
Degree Days  
Heating Degree Days 26    
Moisture  
Dew Point 38 °F    
Average Humidity 88    
Maximum Humidity 100    
Minimum Humidity 61    
Precipitation  
Precipitation 0.00 in - - ()
Sea Level Pressure  
Sea Level Pressure 29.47 in    
Wind  
Wind Speed 5 mph ()    
Max Wind Speed 13 mph    
Max Gust Speed -    
Visibility 4.1 miles    
Events Rain    
T = Trace of Precipitation, MM = Missing Value Source: Averaged Metar Reports

Daily Weather History Graph

Daily Weather History Graph

Search for Another Location

Airport:

Trip Planner

Search our weather history database for the weather conditions in past years. The results will help you decide how hot, cold, wet, or windy it might be!

Date:

Astronomy

Nov. 05, 2013 Rise Set
Actual Time 6:49 AM CET 4:27 PM CET
Civil Twilight 6:15 AM CET 5:01 PM CET
Nautical Twilight 5:37 AM CET 5:39 PM CET
Astronomical Twilight 5:00 AM CET 6:16 PM CET
Moon 8:53 AM CET (11/5) 6:04 PM CET (11/5)
Length of Visible Light 10h 45m
Length of Day
9h 38m
Waxing Crescent, 5% of the Moon is Illuminated
Nov 5
Waxing Crescent
Nov 10
First Quarter
Nov 17
Full
Nov 25
Last Quarter
Dec 3
New

Hourly Weather History & Observations

Time (CET) Temp. Windchill Dew Point Humidity Pressure Visibility Wind Dir Wind Speed Gust Speed Precip Events Conditions
12:00 AM 44.6 °F - 44.6 °F 100% 29.42 in 5.0 mi Variable 2.3 mph - N/A   Overcast
1:00 AM 44.6 °F 43.1 °F 42.8 °F 93% 29.39 in 3.7 mi SSW 3.5 mph - N/A   Overcast
1:25 AM 44.6 °F 43.1 °F 42.8 °F 93% 29.42 in 1.6 mi South 3.5 mph - N/A   Overcast
2:00 AM 42.8 °F 40.1 °F 42.8 °F 100% 29.42 in 1.6 mi SSW 4.6 mph - N/A   Overcast
3:00 AM 42.8 °F 40.1 °F 42.8 °F 100% 29.42 in 1.6 mi South 4.6 mph - N/A   Light Drizzle
4:00 AM 42.8 °F 39.3 °F 42.8 °F 100% 29.42 in 1.6 mi SSW 5.8 mph - N/A Rain Light Rain
4:30 AM 42.8 °F 38.0 °F 42.8 °F 100% 29.42 in 1.6 mi SSW 8.1 mph - N/A Rain Light Rain
5:00 AM 42.8 °F 39.3 °F 42.8 °F 100% 29.44 in 1.6 mi SSW 5.8 mph - N/A Rain Light Rain
6:00 AM 42.8 °F - 42.8 °F 100% 29.42 in 1.6 mi Variable 1.2 mph - N/A Rain Light Rain
7:00 AM 42.8 °F 39.3 °F 42.8 °F 100% 29.44 in 0.7 mi SSW 5.8 mph - N/A Rain Light Rain
7:34 AM 44.6 °F 41.4 °F 42.8 °F 93% 29.47 in 1.9 mi West 5.8 mph - N/A Rain Light Rain
8:00 AM 44.6 °F 40.7 °F 42.8 °F 93% 29.50 in 2.5 mi NW 6.9 mph - N/A Rain Light Rain
8:19 AM 44.6 °F 39.2 °F 42.8 °F 93% 29.50 in 6.2 mi NNW 10.4 mph - N/A Rain Light Rain
9:00 AM 42.8 °F 38.0 °F 41.0 °F 93% 29.50 in 6.2 mi NNW 8.1 mph - N/A   Overcast
10:00 AM 44.6 °F 40.2 °F 41.0 °F 87% 29.53 in 6.2 mi NW 8.1 mph - N/A   Overcast
11:00 AM 44.6 °F 39.7 °F 37.4 °F 76% 29.53 in 6.2 mi NNW 9.2 mph - N/A   Overcast
12:00 PM 44.6 °F 39.7 °F 35.6 °F 71% 29.53 in 6.2 mi NW 9.2 mph - N/A   Mostly Cloudy
1:00 PM 44.6 °F 38.4 °F 32.0 °F 61% 29.53 in 6.2 mi WNW 12.7 mph - N/A   Mostly Cloudy
2:00 PM 44.6 °F 39.7 °F 33.8 °F 66% 29.50 in 6.2 mi WNW 9.2 mph - N/A   Mostly Cloudy
3:00 PM 42.8 °F 37.0 °F 32.0 °F 66% 29.50 in 6.2 mi West 10.4 mph - N/A   Mostly Cloudy
4:00 PM 41.0 °F 34.7 °F 33.8 °F 76% 29.50 in 6.2 mi West 10.4 mph - N/A   Mostly Cloudy
5:00 PM 41.0 °F 34.7 °F 33.8 °F 76% 29.50 in 6.2 mi West 10.4 mph - N/A   Mostly Cloudy
6:00 PM 39.2 °F 34.2 °F 33.8 °F 81% 29.50 in 6.2 mi West 6.9 mph - N/A   Mostly Cloudy
7:00 PM 37.4 °F 32.1 °F 33.8 °F 87% 29.50 in - West 6.9 mph - N/A   Clear
8:00 PM 35.6 °F 31.7 °F 32.0 °F 87% 29.50 in - West 4.6 mph - N/A   Clear
9:00 PM 37.4 °F 32.8 °F 32.0 °F 81% 29.50 in - West 5.8 mph - N/A   Clear
10:00 PM 33.8 °F 30.8 °F 32.0 °F 93% 29.47 in - WSW 3.5 mph - N/A   Clear
11:00 PM 33.8 °F - 32.0 °F 93% 29.47 in - Calm Calm - N/A   Clear